| time (UTC) | temp C | wind direction | speed KPH | gust KPH | rain 1hr cm | rain 24hr cm | rain mn cm | humidity % | barometer mb |
| 20260906043927 | 20 | 320 | 0.0 | 0.0 | 0.00 | 0.00 | 0.00 | 99 | 1016.7 |
| 20260906043423 | 20 | 320 | 0.0 | 0.0 | 0.00 | 0.00 | 0.00 | 98 | 1016.3 |
| 20260906042919 | 20 | 320 | 0.0 | 0.0 | 0.00 | 0.00 | 0.00 | 99 | 1016.7 |
| 20260906042418 | 20 | 320 | 0.0 | 0.0 | 0.00 | 0.00 | 0.00 | 99 | 1016.7 |
| 20260906041913 | 20 | 320 | 0.0 | 0.0 | 0.00 | 0.00 | 0.00 | 98 | 1016.3 |
| 20260906041409 | 20 | 320 | 0.0 | 0.0 | 0.00 | 0.00 | 0.00 | 98 | 1016.3 |
| 20260906040909 | 20 | 320 | 0.0 | 0.0 | 0.00 | 0.00 | 0.00 | 98 | 1016.3 |
| 20260906040404 | 20 | 320 | 0.0 | 0.0 | 0.00 | 0.00 | 0.00 | 99 | 1016.3 |
| 20260906035859 | 20 | 320 | 0.0 | 0.0 | 0.00 | 0.10 | 0.10 | 99 | 1016.3 |
| 20260906035354 | 20 | 320 | 0.0 | 0.0 | 0.00 | 0.10 | 0.10 | 99 | 1016.7 |
| 20260906034850 | 20 | 320 | 0.0 | 0.0 | 0.00 | 0.10 | 0.10 | 99 | 1016.7 |
| 20260906034344 | 20 | 320 | 0.0 | 0.0 | 0.00 | 0.10 | 0.10 | 98 | 1016.7 |
| 20260906033840 | 20 | 320 | 0.0 | 0.0 | 0.00 | 0.10 | 0.10 | 98 | 1016.7 |
| 20260906033339 | 20 | 320 | 0.0 | 0.0 | 0.00 | 0.10 | 0.10 | 98 | 1016.7 |
| 20260906032836 | 20 | 320 | 0.0 | 0.0 | 0.00 | 0.10 | 0.10 | 98 | 1017.0 |
| 20260906032331 | 20 | 320 | 0.0 | 0.0 | 0.00 | 0.10 | 0.10 | 98 | 1017.0 |
| 20260906031826 | 20 | 320 | 0.0 | 0.0 | 0.00 | 0.10 | 0.10 | 98 | 1017.0 |
| 20260906031322 | 20 | 320 | 0.0 | 0.0 | 0.00 | 0.10 | 0.10 | 98 | 1017.3 |
| 20260906030821 | 20 | 320 | 0.0 | 0.0 | 0.00 | 0.10 | 0.10 | 98 | 1017.3 |
| 20260906030317 | 20 | 320 | 0.0 | 0.0 | 0.00 | 0.10 | 0.10 | 98 | 1017.3 |
| 20260906025811 | 20 | 320 | 0.0 | 0.0 | 0.00 | 0.10 | 0.10 | 97 | 1017.0 |
| 20260906025306 | 20 | 320 | 0.0 | 0.0 | 0.00 | 0.10 | 0.10 | 97 | 1017.0 |
| 20260906024804 | 21 | 320 | 0.0 | 0.0 | 0.00 | 0.10 | 0.10 | 98 | 1017.0 |
| 20260906024304 | 21 | 320 | 0.0 | 0.0 | 0.00 | 0.10 | 0.10 | 97 | 1016.7 |
| 20260906023759 | 21 | 320 | 0.0 | 0.0 | 0.00 | 0.10 | 0.10 | 97 | 1016.7 |
| 20260906023254 | 21 | 320 | 0.0 | 0.0 | 0.00 | 0.10 | 0.10 | 98 | 1017.0 |
| 20260906022750 | 21 | 320 | 0.0 | 0.0 | 0.00 | 0.10 | 0.10 | 98 | 1016.7 |
| 20260906022245 | 21 | 320 | 0.0 | 0.0 | 0.00 | 0.10 | 0.10 | 98 | 1016.7 |
| 20260906021741 | 21 | 320 | 0.0 | 0.0 | 0.00 | 0.10 | 0.10 | 98 | 1016.3 |
| 20260906021240 | 21 | 320 | 0.0 | 0.0 | 0.00 | 0.10 | 0.10 | 97 | 1016.3 |
| 20260906020735 | 21 | 320 | 0.0 | 0.0 | 0.00 | 0.10 | 0.10 | 97 | 1016.3 |
| 20260906020235 | 21 | 320 | 0.0 | 0.0 | 0.00 | 0.10 | 0.10 | 97 | 1016.3 |
| 20260906015729 | 21 | 320 | 0.0 | 0.0 | 0.00 | 0.10 | 0.10 | 97 | 1016.3 |
| 20260906015228 | 21 | 320 | 0.0 | 0.0 | 0.00 | 0.10 | 0.10 | 97 | 1016.3 |
| 20260906014723 | 21 | 320 | 0.0 | 0.0 | 0.00 | 0.10 | 0.10 | 97 | 1016.3 |
| 20260906014219 | 21 | 320 | 0.0 | 0.0 | 0.00 | 0.10 | 0.10 | 98 | 1016.3 |
| 20260906013714 | 21 | 320 | 0.0 | 0.0 | 0.00 | 0.10 | 0.10 | 97 | 1016.3 |
| 20260906013214 | 21 | 320 | 0.0 | 0.0 | 0.00 | 0.10 | 0.10 | 97 | 1016.3 |
| 20260906012709 | 21 | 320 | 0.0 | 0.0 | 0.00 | 0.10 | 0.10 | 97 | 1016.3 |
| 20260906012204 | 21 | 320 | 0.0 | 0.0 | 0.00 | 0.10 | 0.10 | 97 | 1015.9 |
| 20260906011700 | 21 | 320 | 0.0 | 0.0 | 0.00 | 0.10 | 0.10 | 97 | 1016.3 |
| 20260906011154 | 21 | 320 | 0.0 | 0.0 | 0.00 | 0.10 | 0.10 | 97 | 1016.3 |
| 20260906010649 | 21 | 320 | 0.0 | 0.0 | 0.00 | 0.10 | 0.10 | 96 | 1015.9 |
| 20260906010146 | 22 | 320 | 0.0 | 0.0 | 0.00 | 0.10 | 0.10 | 96 | 1015.9 |
| 20260906005645 | 22 | 320 | 0.0 | 0.0 | 0.00 | 0.10 | 0.10 | 95 | 1016.3 |
| 20260906005144 | 22 | 320 | 0.0 | 0.0 | 0.00 | 0.10 | 0.10 | 95 | 1016.3 |
| 20260906004643 | 22 | 320 | 0.0 | 0.0 | 0.00 | 0.10 | 0.10 | 95 | 1015.9 |
| 20260906004139 | 22 | 320 | 0.0 | 0.0 | 0.00 | 0.10 | 0.10 | 93 | 1015.6 |
| 20260906003634 | 22 | 320 | 0.0 | 0.0 | 0.00 | 0.10 | 0.10 | 94 | 1015.9 |
| 20260906003130 | 22 | 320 | 0.0 | 0.0 | 0.00 | 0.10 | 0.10 | 94 | 1015.9 |
| 20260906002624 | 22 | 320 | 0.0 | 0.0 | 0.00 | 0.10 | 0.10 | 94 | 1015.6 |
| 20260906002119 | 22 | 320 | 0.0 | 0.0 | 0.00 | 0.10 | 0.10 | 94 | 1015.6 |
| 20260906001614 | 22 | 320 | 0.0 | 0.0 | 0.00 | 0.10 | 0.10 | 94 | 1015.6 |
| 20260906001109 | 23 | 320 | 0.0 | 0.0 | 0.00 | 0.10 | 0.10 | 93 | 1015.6 |
| 20260906000605 | 23 | 320 | 0.0 | 0.0 | 0.00 | 0.10 | 0.10 | 93 | 1015.6 |
| 20260906000100 | 23 | 320 | 0.0 | 0.0 | 0.00 | 0.10 | 0.10 | 93 | 1015.6 |
| 20260905235559 | 23 | 320 | 0.0 | 0.0 | 0.00 | 0.10 | 0.10 | 92 | 1015.6 |
| 20260905235054 | 23 | 320 | 0.0 | 0.0 | 0.00 | 0.10 | 0.10 | 91 | 1015.6 |
| 20260905234549 | 23 | 320 | 0.0 | 0.0 | 0.00 | 0.10 | 0.10 | 91 | 1015.6 |
| 20260905234044 | 23 | 320 | 0.0 | 0.0 | 0.00 | 0.10 | 0.10 | 90 | 1015.6 |
| 20260905233539 | 23 | 320 | 0.0 | 0.0 | 0.00 | 0.10 | 0.10 | 87 | 1015.6 |
| 20260905233038 | 23 | 320 | 0.0 | 0.0 | 0.00 | 0.10 | 0.10 | 87 | 1015.2 |
| 20260905232534 | 23 | 320 | 0.0 | 0.0 | 0.00 | 0.10 | 0.10 | 87 | 1015.6 |
| 20260905232030 | 23 | 320 | 0.0 | 0.0 | 0.00 | 0.10 | 0.10 | 87 | 1015.2 |
| 20260905231525 | 23 | 320 | 0.0 | 0.0 | 0.00 | 0.10 | 0.10 | 87 | 1015.2 |
| 20260905231021 | 23 | 320 | 0.0 | 0.0 | 0.00 | 0.10 | 0.10 | 88 | 1015.2 |
| 20260905230520 | 23 | 320 | 0.0 | 0.0 | 0.00 | 0.10 | 0.10 | 87 | 1015.2 |
| 20260905230019 | 23 | 320 | 0.0 | 0.0 | 0.00 | 0.10 | 0.10 | 86 | 1015.2 |
| 20260905225514 | 23 | 320 | 0.0 | 0.0 | 0.00 | 0.10 | 0.10 | 88 | 1014.9 |
| 20260905225009 | 24 | 320 | 0.0 | 0.0 | 0.00 | 0.10 | 0.10 | 87 | 1015.2 |
| 20260905224504 | 24 | 320 | 0.0 | 0.0 | 0.00 | 0.10 | 0.10 | 87 | 1015.2 |
| 20260905224003 | 24 | 320 | 0.0 | 0.0 | 0.00 | 0.10 | 0.10 | 86 | 1015.2 |
| 20260905223501 | 24 | 320 | 0.0 | 0.0 | 0.00 | 0.10 | 0.10 | 86 | 1015.2 |
| 20260905222956 | 24 | 320 | 0.0 | 0.0 | 0.00 | 0.10 | 0.10 | 86 | 1015.2 |
| 20260905222456 | 24 | 321 | 0.0 | 0.0 | 0.00 | 0.10 | 0.10 | 86 | 1015.6 |
| 20260905221951 | 24 | 321 | 0.0 | 0.0 | 0.00 | 0.10 | 0.10 | 86 | 1015.6 |
| 20260905221448 | 24 | 321 | 0.0 | 0.0 | 0.00 | 0.10 | 0.10 | 84 | 1015.6 |
| 20260905220943 | 24 | 321 | 0.0 | 1.6 | 0.00 | 0.10 | 0.10 | 85 | 1015.6 |
| 20260905220439 | 24 | 319 | 0.0 | 1.6 | 0.00 | 0.10 | 0.10 | 85 | 1015.2 |
| 20260905215938 | 24 | 316 | 0.0 | 0.0 | 0.00 | 0.10 | 0.10 | 86 | 1015.6 |
| 20260905215434 | 24 | 316 | 0.0 | 0.0 | 0.00 | 0.10 | 0.10 | 85 | 1015.6 |
| 20260905214930 | 24 | 316 | 0.0 | 0.0 | 0.00 | 0.10 | 0.10 | 84 | 1015.6 |
| 20260905214426 | 24 | 315 | 0.0 | 0.0 | 0.00 | 0.10 | 0.10 | 84 | 1015.6 |
| 20260905213925 | 24 | 313 | 0.0 | 0.0 | 0.00 | 0.10 | 0.10 | 84 | 1015.6 |
| 20260905213421 | 24 | 312 | 0.0 | 0.0 | 0.00 | 0.10 | 0.10 | 86 | 1015.6 |
| 20260905212917 | 24 | 311 | 0.0 | 0.0 | 0.00 | 0.10 | 0.10 | 85 | 1015.9 |
| 20260905212412 | 25 | 311 | 0.0 | 3.2 | 0.00 | 0.10 | 0.10 | 83 | 1015.9 |
| 20260905211911 | 25 | 311 | 0.0 | 3.2 | 0.00 | 0.10 | 0.10 | 80 | 1015.9 |
| 20260905211407 | 25 | 271 | 0.0 | 1.6 | 0.00 | 0.10 | 0.10 | 83 | 1015.9 |
| 20260905210902 | 25 | 271 | 0.0 | 1.6 | 0.00 | 0.10 | 0.10 | 82 | 1016.3 |
| 20260905210357 | 25 | 275 | 0.0 | 1.6 | 0.00 | 0.10 | 0.10 | 81 | 1016.3 |
| 20260905205856 | 24 | 275 | 0.0 | 1.6 | 0.00 | 0.10 | 0.10 | 81 | 1016.3 |
| 20260905205351 | 24 | 273 | 0.0 | 6.4 | 0.00 | 0.10 | 0.10 | 80 | 1016.3 |
| 20260905204850 | 24 | 230 | 0.0 | 6.4 | 0.00 | 0.10 | 0.10 | 81 | 1016.3 |
| 20260905204347 | 24 | 196 | 0.0 | 1.6 | 0.00 | 0.10 | 0.10 | 85 | 1015.9 |
| 20260905203845 | 23 | 270 | 0.0 | 1.6 | 0.00 | 0.10 | 0.10 | 85 | 1016.3 |
| 20260905203341 | 23 | 276 | 0.0 | 1.6 | 0.00 | 0.10 | 0.10 | 85 | 1016.3 |
| 20260905202837 | 23 | 275 | 0.0 | 0.0 | 0.00 | 0.10 | 0.10 | 88 | 1016.3 |
| 20260905202331 | 23 | 275 | 0.0 | 0.0 | 0.00 | 0.10 | 0.10 | 91 | 1016.3 |
| 20260905201827 | 22 | 275 | 0.0 | 0.0 | 0.00 | 0.10 | 0.10 | 91 | 1016.7 |
| 20260905201322 | 22 | 277 | 0.0 | 0.0 | 0.00 | 0.10 | 0.10 | 93 | 1016.7 |
| 20260905200816 | 22 | 277 | 0.0 | 0.0 | 0.00 | 0.10 | 0.10 | 94 | 1016.7 |
| 20260905200313 | 22 | 277 | 0.0 | 0.0 | 0.00 | 0.10 | 0.10 | 95 | 1016.7 |
| 20260905195810 | 22 | 277 | 0.0 | 0.0 | 0.00 | 0.10 | 0.10 | 96 | 1016.7 |
| 20260905195307 | 22 | 227 | 0.0 | 0.0 | 0.00 | 0.10 | 0.10 | 98 | 1017.0 |
| 20260905194801 | 22 | 227 | 0.0 | 0.0 | 0.00 | 0.10 | 0.10 | 97 | 1016.7 |
| 20260905194300 | 21 | 227 | 0.0 | 0.0 | 0.00 | 0.10 | 0.10 | 97 | 1016.7 |
| 20260905193754 | 21 | 227 | 0.0 | 0.0 | 0.00 | 0.10 | 0.10 | 97 | 1016.7 |
| 20260905193249 | 21 | 227 | 0.0 | 0.0 | 0.00 | 0.10 | 0.10 | 96 | 1016.7 |
| 20260905192745 | 21 | 227 | 0.0 | 0.0 | 0.00 | 0.10 | 0.10 | 98 | 1016.7 |
| 20260905192241 | 21 | 227 | 0.0 | 0.0 | 0.00 | 0.10 | 0.10 | 99 | 1016.7 |
| 20260905191740 | 21 | 227 | 0.0 | 0.0 | 0.05 | 0.10 | 0.10 | 98 | 1016.7 |
| 20260905191239 | 21 | 227 | 0.0 | 0.0 | 0.05 | 0.10 | 0.10 | 98 | 1016.7 |
| 20260905190737 | 21 | 227 | 0.0 | 0.0 | 0.05 | 0.10 | 0.10 | 98 | 1016.7 |
| 20260905190237 | 21 | 227 | 0.0 | 0.0 | 0.08 | 0.10 | 0.10 | 98 | 1016.7 |
| 20260905185736 | 21 | 227 | 0.0 | 3.2 | 0.08 | 0.10 | 0.10 | 98 | 1017.0 |
| 20260905185230 | 21 | 227 | 0.0 | 3.2 | 0.10 | 0.10 | 0.10 | 97 | 1017.0 |
| 20260905184724 | 21 | 225 | 0.0 | 1.6 | 0.10 | 0.10 | 0.10 | 96 | 1017.3 |
| 20260905184224 | 21 | 110 | 0.0 | 1.6 | 0.10 | 0.10 | 0.10 | 98 | 1017.3 |
| 20260905183718 | 21 | 110 | 0.0 | 1.6 | 0.10 | 0.10 | 0.10 | 98 | 1017.3 |
| 20260905183213 | 21 | 110 | 0.0 | 1.6 | 0.10 | 0.10 | 0.10 | 97 | 1017.3 |
| 20260905182712 | 21 | 110 | 0.0 | 1.6 | 0.10 | 0.10 | 0.10 | 95 | 1017.3 |
| 20260905182207 | 21 | 110 | 0.0 | 1.6 | 0.08 | 0.10 | 0.10 | 93 | 1017.3 |
| 20260905181702 | 21 | 110 | 0.0 | 6.4 | 0.05 | 0.05 | 0.05 | 91 | 1017.8 |
| 20260905181201 | 22 | 261 | 1.6 | 6.4 | 0.05 | 0.05 | 0.05 | 87 | 1018.5 |
| 20260905180656 | 23 | 101 | 1.6 | 9.7 | 0.05 | 0.05 | 0.05 | 86 | 1017.8 |
| 20260905180151 | 24 | 100 | 3.2 | 19.3 | 0.03 | 0.03 | 0.03 | 83 | 1017.8 |
| 20260905175650 | 26 | 5 | 4.8 | 32.2 | 0.00 | 0.00 | 0.00 | 77 | 1017.8 |
| 20260905175146 | 28 | 277 | 1.6 | 32.2 | 0.00 | 0.00 | 0.00 | 69 | 1017.3 |
| 20260905174641 | 29 | 11 | 0.0 | 3.2 | 0.00 | 0.00 | 0.00 | 73 | 1016.7 |
| 20260905174137 | 29 | 281 | 0.0 | 3.2 | 0.00 | 0.00 | 0.00 | 72 | 1016.7 |
| 20260905173633 | 29 | 145 | 0.0 | 6.4 | 0.00 | 0.00 | 0.00 | 71 | 1016.7 |
| 20260905173128 | 30 | 263 | 0.0 | 6.4 | 0.00 | 0.00 | 0.00 | 69 | 1016.7 |
| 20260905172627 | 30 | 163 | 1.6 | 8.0 | 0.00 | 0.00 | 0.00 | 67 | 1017.0 |
| 20260905172122 | 30 | 10 | 1.6 | 8.0 | 0.00 | 0.00 | 0.00 | 64 | 1017.3 |
| 20260905171618 | 30 | 188 | 0.0 | 6.4 | 0.00 | 0.00 | 0.00 | 67 | 1017.3 |
| 20260905171114 | 31 | 244 | 0.0 | 8.0 | 0.00 | 0.00 | 0.00 | 66 | 1017.3 |
| 20260905170610 | 31 | 268 | 0.0 | 3.2 | 0.00 | 0.00 | 0.00 | 68 | 1017.3 |
| 20260905170105 | 31 | 268 | 0.0 | 3.2 | 0.00 | 0.00 | 0.00 | 67 | 1017.0 |
| 20260905165559 | 31 | 268 | 0.0 | 6.4 | 0.00 | 0.00 | 0.00 | 65 | 1017.0 |
| 20260905165054 | 30 | 247 | 0.0 | 6.4 | 0.00 | 0.00 | 0.00 | 64 | 1017.0 |
| 20260905164549 | 30 | 263 | 0.0 | 6.4 | 0.00 | 0.00 | 0.00 | 69 | 1017.0 |
| 20260905164044 | 30 | 263 | 0.0 | 6.4 | 0.00 | 0.00 | 0.00 | 67 | 1017.3 |
| 20260905163540 | 30 | 281 | 0.0 | 3.2 | 0.00 | 0.00 | 0.00 | 67 | 1017.3 |
| 20260905163036 | 30 | 239 | 0.0 | 3.2 | 0.00 | 0.00 | 0.00 | 68 | 1017.8 |
| 20260905162532 | 29 | 280 | 1.6 | 8.0 | 0.00 | 0.00 | 0.00 | 70 | 1017.8 |
| 20260905162026 | 29 | 204 | 1.6 | 9.7 | 0.00 | 0.00 | 0.00 | 68 | 1017.8 |
| 20260905161526 | 29 | 286 | 1.6 | 9.7 | 0.00 | 0.00 | 0.00 | 70 | 1017.8 |
| 20260905161024 | 28 | 104 | 0.0 | 6.4 | 0.00 | 0.00 | 0.00 | 72 | 1018.1 |
| 20260905160517 | 28 | 254 | 0.0 | 6.4 | 0.00 | 0.00 | 0.00 | 74 | 1017.8 |
| 20260905160018 | 28 | 98 | 0.0 | 8.0 | 0.00 | 0.00 | 0.00 | 74 | 1018.1 |
| 20260905155517 | 28 | 230 | 0.0 | 8.0 | 0.00 | 0.00 | 0.00 | 78 | 1018.1 |
| 20260905155015 | 27 | 201 | 0.0 | 6.4 | 0.00 | 0.00 | 0.00 | 79 | 1018.1 |
| 20260905154511 | 27 | 267 | 0.0 | 8.0 | 0.00 | 0.00 | 0.00 | 77 | 1018.1 |
| 20260905154007 | 27 | 271 | 0.0 | 8.0 | 0.00 | 0.00 | 0.00 | 78 | 1018.1 |
| 20260905153503 | 27 | 273 | 0.0 | 8.0 | 0.00 | 0.00 | 0.00 | 81 | 1018.1 |
| 20260905153002 | 26 | 252 | 0.0 | 8.0 | 0.00 | 0.00 | 0.00 | 81 | 1018.1 |
| 20260905152502 | 26 | 262 | 0.0 | 6.4 | 0.00 | 0.00 | 0.00 | 82 | 1017.8 |
| 20260905151957 | 26 | 267 | 0.0 | 6.4 | 0.00 | 0.00 | 0.00 | 83 | 1017.8 |
| 20260905151452 | 26 | 293 | 0.0 | 1.6 | 0.00 | 0.00 | 0.00 | 82 | 1017.8 |
| 20260905150947 | 26 | 296 | 0.0 | 0.0 | 0.00 | 0.00 | 0.00 | 82 | 1017.8 |
| 20260905150443 | 26 | 295 | 0.0 | 3.2 | 0.00 | 0.00 | 0.00 | 83 | 1017.8 |
| 20260905145938 | 25 | 296 | 0.0 | 3.2 | 0.00 | 0.00 | 0.00 | 84 | 1017.8 |
| 20260905145433 | 25 | 117 | 0.0 | 0.0 | 0.00 | 0.00 | 0.00 | 84 | 1017.8 |
| 20260905144933 | 25 | 76 | 0.0 | 0.0 | 0.00 | 0.00 | 0.00 | 85 | 1017.8 |
| 20260905144428 | 25 | 76 | 0.0 | 0.0 | 0.00 | 0.00 | 0.00 | 87 | 1017.8 |
| 20260905143927 | 25 | 77 | 0.0 | 0.0 | 0.00 | 0.00 | 0.00 | 87 | 1018.1 |
| 20260905143420 | 25 | 82 | 0.0 | 0.0 | 0.00 | 0.00 | 0.00 | 90 | 1018.1 |
| 20260905142915 | 24 | 82 | 0.0 | 0.0 | 0.00 | 0.00 | 0.00 | 89 | 1018.1 |
| 20260905142414 | 24 | 246 | 0.0 | 1.6 | 0.00 | 0.00 | 0.00 | 90 | 1018.1 |
| 20260905141910 | 23 | 245 | 0.0 | 1.6 | 0.00 | 0.00 | 0.00 | 91 | 1018.1 |
| 20260905141404 | 23 | 245 | 0.0 | 0.0 | 0.00 | 0.00 | 0.00 | 92 | 1018.1 |
| 20260905140900 | 23 | 244 | 0.0 | 0.0 | 0.00 | 0.00 | 0.00 | 94 | 1018.1 |
| 20260905140355 | 22 | 244 | 0.0 | 1.6 | 0.00 | 0.00 | 0.00 | 95 | 1018.1 |
| 20260905135854 | 22 | 232 | 0.0 | 1.6 | 0.00 | 0.00 | 0.00 | 95 | 1018.1 |
| 20260905135350 | 22 | 230 | 0.0 | 1.6 | 0.00 | 0.00 | 0.00 | 97 | 1018.1 |
| 20260905134846 | 22 | 230 | 0.0 | 1.6 | 0.00 | 0.00 | 0.00 | 97 | 1018.1 |
| 20260905134344 | 21 | 230 | 0.0 | 1.6 | 0.00 | 0.00 | 0.00 | 98 | 1018.5 |
| 20260905133839 | 21 | 228 | 0.0 | 1.6 | 0.00 | 0.00 | 0.00 | 100 | 1018.5 |
| 20260905133334 | 21 | 228 | 0.0 | 0.0 | 0.00 | 0.00 | 0.00 | 100 | 1018.5 |
| 20260905132833 | 21 | 228 | 0.0 | 0.0 | 0.00 | 0.00 | 0.00 | 100 | 1018.5 |
| 20260905132329 | 21 | 228 | 0.0 | 0.0 | 0.00 | 0.00 | 0.00 | 100 | 1018.5 |
| 20260905131829 | 21 | 228 | 0.0 | 0.0 | 0.00 | 0.00 | 0.00 | 100 | 1018.5 |
| 20260905131325 | 21 | 228 | 0.0 | 0.0 | 0.00 | 0.00 | 0.00 | 100 | 1018.5 |
| 20260905130820 | 20 | 228 | 0.0 | 0.0 | 0.00 | 0.00 | 0.00 | 100 | 1018.5 |
| 20260905130318 | 20 | 228 | 0.0 | 0.0 | 0.00 | 0.00 | 0.00 | 100 | 1018.5 |
| 20260905125814 | 20 | 228 | 0.0 | 0.0 | 0.00 | 0.00 | 0.00 | 100 | 1018.5 |
| 20260905125309 | 20 | 228 | 0.0 | 0.0 | 0.00 | 0.00 | 0.00 | 100 | 1018.5 |
| 20260905124805 | 20 | 228 | 0.0 | 0.0 | 0.00 | 0.00 | 0.00 | 100 | 1018.5 |
| 20260905124301 | 20 | 228 | 0.0 | 0.0 | 0.00 | 0.00 | 0.00 | 100 | 1018.5 |
| 20260905123755 | 20 | 228 | 0.0 | 0.0 | 0.00 | 0.00 | 0.00 | 100 | 1018.5 |
| 20260905123253 | 20 | 228 | 0.0 | 0.0 | 0.00 | 0.00 | 0.00 | 100 | 1018.5 |
| 20260905122752 | 20 | 228 | 0.0 | 0.0 | 0.00 | 0.00 | 0.00 | 100 | 1018.5 |
| 20260905122252 | 20 | 228 | 0.0 | 0.0 | 0.00 | 0.00 | 0.00 | 100 | 1018.5 |
| 20260905121747 | 20 | 228 | 0.0 | 0.0 | 0.00 | 0.00 | 0.00 | 100 | 1018.5 |
| 20260905121244 | 20 | 228 | 0.0 | 0.0 | 0.00 | 0.00 | 0.00 | 100 | 1018.5 |
| 20260905120742 | 20 | 228 | 0.0 | 0.0 | 0.00 | 0.00 | 0.00 | 99 | 1018.5 |
| 20260905120236 | 20 | 228 | 0.0 | 0.0 | 0.00 | 0.00 | 0.00 | 99 | 1018.1 |
| 20260905115731 | 20 | 228 | 0.0 | 0.0 | 0.00 | 0.00 | 0.00 | 99 | 1018.1 |
| 20260905115225 | 20 | 228 | 0.0 | 0.0 | 0.00 | 0.00 | 0.00 | 100 | 1018.1 |
| 20260905114720 | 20 | 228 | 0.0 | 0.0 | 0.00 | 0.00 | 0.00 | 100 | 1018.1 |
| 20260905114218 | 20 | 228 | 0.0 | 0.0 | 0.00 | 0.00 | 0.00 | 100 | 1018.1 |
| 20260905113713 | 20 | 228 | 0.0 | 0.0 | 0.00 | 0.00 | 0.00 | 100 | 1018.1 |
| 20260905113209 | 20 | 228 | 0.0 | 0.0 | 0.00 | 0.00 | 0.00 | 100 | 1018.1 |
| 20260905112709 | 20 | 228 | 0.0 | 0.0 | 0.00 | 0.00 | 0.00 | 100 | 1018.1 |
| 20260905112204 | 20 | 228 | 0.0 | 0.0 | 0.00 | 0.00 | 0.00 | 99 | 1017.8 |
| 20260905111704 | 20 | 228 | 0.0 | 0.0 | 0.00 | 0.00 | 0.00 | 100 | 1017.8 |
| 20260905111204 | 20 | 228 | 0.0 | 0.0 | 0.00 | 0.00 | 0.00 | 100 | 1017.3 |
| 20260905110703 | 20 | 228 | 0.0 | 0.0 | 0.00 | 0.00 | 0.00 | 100 | 1017.3 |
| 20260905110157 | 20 | 228 | 0.0 | 0.0 | 0.00 | 0.00 | 0.00 | 99 | 1017.3 |
| 20260905105652 | 19 | 228 | 0.0 | 0.0 | 0.00 | 0.00 | 0.00 | 99 | 1017.3 |
| 20260905105146 | 19 | 228 | 0.0 | 0.0 | 0.00 | 0.00 | 0.00 | 99 | 1017.3 |
| 20260905104641 | 19 | 228 | 0.0 | 0.0 | 0.00 | 0.00 | 0.00 | 99 | 1017.3 |
| 20260905104137 | 19 | 228 | 0.0 | 0.0 | 0.00 | 0.00 | 0.00 | 98 | 1017.3 |
| 20260905103632 | 20 | 228 | 0.0 | 0.0 | 0.00 | 0.00 | 0.00 | 98 | 1017.3 |
| 20260905103127 | 20 | 228 | 0.0 | 0.0 | 0.00 | 0.00 | 0.00 | 98 | 1017.3 |
| 20260905102623 | 20 | 228 | 0.0 | 0.0 | 0.00 | 0.00 | 0.00 | 98 | 1017.3 |
| 20260905102120 | 20 | 228 | 0.0 | 0.0 | 0.00 | 0.00 | 0.00 | 98 | 1017.3 |
| 20260905101618 | 20 | 228 | 0.0 | 0.0 | 0.00 | 0.00 | 0.00 | 98 | 1017.0 |
| 20260905101116 | 20 | 228 | 0.0 | 0.0 | 0.00 | 0.00 | 0.00 | 99 | 1017.0 |
| 20260905100612 | 20 | 228 | 0.0 | 0.0 | 0.00 | 0.00 | 0.00 | 100 | 1017.0 |
| 20260905100107 | 20 | 228 | 0.0 | 0.0 | 0.00 | 0.00 | 0.00 | 99 | 1017.0 |
| 20260905095601 | 20 | 228 | 0.0 | 0.0 | 0.00 | 0.00 | 0.00 | 98 | 1017.0 |
| 20260905095057 | 20 | 228 | 0.0 | 0.0 | 0.00 | 0.00 | 0.00 | 97 | 1017.0 |
| 20260905094551 | 20 | 228 | 0.0 | 0.0 | 0.00 | 0.00 | 0.00 | 96 | 1017.0 |
| 20260905094050 | 20 | 228 | 0.0 | 0.0 | 0.00 | 0.00 | 0.00 | 98 | 1017.3 |
| 20260905093545 | 20 | 228 | 0.0 | 0.0 | 0.00 | 0.00 | 0.00 | 97 | 1017.3 |
| 20260905093042 | 20 | 228 | 0.0 | 0.0 | 0.00 | 0.00 | 0.00 | 99 | 1017.0 |
| 20260905092541 | 20 | 228 | 0.0 | 0.0 | 0.00 | 0.00 | 0.00 | 99 | 1017.3 |
| 20260905092037 | 20 | 228 | 0.0 | 0.0 | 0.00 | 0.00 | 0.00 | 99 | 1017.3 |
| 20260905091531 | 20 | 228 | 0.0 | 0.0 | 0.00 | 0.00 | 0.00 | 99 | 1017.3 |
| 20260905091030 | 20 | 228 | 0.0 | 0.0 | 0.00 | 0.00 | 0.00 | 98 | 1017.3 |
| 20260905090525 | 20 | 228 | 0.0 | 0.0 | 0.00 | 0.00 | 0.00 | 97 | 1017.3 |
| 20260905090020 | 20 | 228 | 0.0 | 0.0 | 0.00 | 0.00 | 0.00 | 96 | 1017.3 |
| 20260905085519 | 20 | 228 | 0.0 | 0.0 | 0.00 | 0.00 | 0.00 | 97 | 1017.3 |
| 20260905085015 | 20 | 228 | 0.0 | 0.0 | 0.00 | 0.00 | 0.00 | 99 | 1017.3 |
| 20260905084514 | 20 | 228 | 0.0 | 0.0 | 0.00 | 0.00 | 0.00 | 99 | 1017.3 |
| 20260905084009 | 20 | 228 | 0.0 | 0.0 | 0.00 | 0.00 | 0.00 | 99 | 1017.3 |
| 20260905083504 | 20 | 228 | 0.0 | 0.0 | 0.00 | 0.00 | 0.00 | 99 | 1017.8 |
| 20260905083001 | 20 | 228 | 0.0 | 0.0 | 0.00 | 0.00 | 0.00 | 99 | 1017.8 |
| 20260905082456 | 20 | 228 | 0.0 | 0.0 | 0.00 | 0.00 | 0.00 | 99 | 1017.8 |
| 20260905081951 | 20 | 228 | 0.0 | 0.0 | 0.00 | 0.00 | 0.00 | 99 | 1017.8 |
| 20260905081446 | 20 | 228 | 0.0 | 0.0 | 0.00 | 0.00 | 0.00 | 99 | 1017.8 |
| 20260905080945 | 20 | 228 | 0.0 | 0.0 | 0.00 | 0.00 | 0.00 | 98 | 1017.8 |
| 20260905080440 | 20 | 228 | 0.0 | 0.0 | 0.00 | 0.00 | 0.00 | 97 | 1017.8 |
| 20260905075939 | 20 | 228 | 0.0 | 0.0 | 0.00 | 0.00 | 0.00 | 97 | 1017.8 |
| 20260905075434 | 20 | 228 | 0.0 | 0.0 | 0.00 | 0.00 | 0.00 | 98 | 1017.8 |
| 20260905074932 | 20 | 228 | 0.0 | 0.0 | 0.00 | 0.00 | 0.00 | 99 | 1017.8 |
| 20260905074428 | 20 | 228 | 0.0 | 0.0 | 0.00 | 0.00 | 0.00 | 98 | 1017.8 |
| 20260905073924 | 20 | 228 | 0.0 | 0.0 | 0.00 | 0.00 | 0.00 | 98 | 1018.1 |
| 20260905073418 | 20 | 228 | 0.0 | 0.0 | 0.00 | 0.00 | 0.00 | 99 | 1018.1 |
| 20260905072914 | 20 | 228 | 0.0 | 0.0 | 0.00 | 0.00 | 0.00 | 99 | 1018.1 |
| 20260905072408 | 20 | 228 | 0.0 | 0.0 | 0.00 | 0.00 | 0.00 | 99 | 1018.1 |
| 20260905071859 | 20 | 228 | 0.0 | 0.0 | 0.00 | 0.00 | 0.00 | 99 | 1018.1 |
| 20260905071355 | 20 | 228 | 0.0 | 0.0 | 0.00 | 0.00 | 0.00 | 99 | 1018.1 |
| 20260905070855 | 20 | 228 | 0.0 | 0.0 | 0.00 | 0.00 | 0.00 | 98 | 1018.1 |
| 20260905070351 | 20 | 228 | 0.0 | 0.0 | 0.00 | 0.00 | 0.00 | 98 | 1018.1 |
| 20260905065850 | 20 | 228 | 0.0 | 0.0 | 0.00 | 0.00 | 0.00 | 97 | 1018.1 |
| 20260905065348 | 20 | 228 | 0.0 | 0.0 | 0.00 | 0.00 | 0.00 | 98 | 1018.5 |
| 20260905064838 | 20 | 228 | 0.0 | 0.0 | 0.00 | 0.00 | 0.00 | 97 | 1018.1 |
| 20260905064334 | 20 | 228 | 0.0 | 0.0 | 0.00 | 0.00 | 0.00 | 98 | 1018.5 |
| 20260905063832 | 20 | 228 | 0.0 | 0.0 | 0.00 | 0.00 | 0.00 | 98 | 1018.5 |
| 20260905063328 | 20 | 228 | 0.0 | 0.0 | 0.00 | 0.00 | 0.00 | 98 | 1018.5 |
| 20260905062825 | 20 | 228 | 0.0 | 0.0 | 0.00 | 0.00 | 0.00 | 97 | 1018.5 |
| 20260905062319 | 20 | 228 | 0.0 | 0.0 | 0.00 | 0.00 | 0.00 | 97 | 1018.5 |
| 20260905061814 | 20 | 228 | 0.0 | 0.0 | 0.00 | 0.00 | 0.00 | 97 | 1018.5 |
| 20260905061314 | 21 | 228 | 0.0 | 0.0 | 0.00 | 0.00 | 0.00 | 97 | 1018.5 |
| 20260905060808 | 21 | 228 | 0.0 | 0.0 | 0.00 | 0.00 | 0.00 | 96 | 1018.5 |
| 20260905060305 | 21 | 228 | 0.0 | 0.0 | 0.00 | 0.00 | 0.00 | 96 | 1018.5 |
| 20260905055803 | 21 | 228 | 0.0 | 0.0 | 0.00 | 0.00 | 0.00 | 97 | 1018.5 |
| 20260905055258 | 21 | 228 | 0.0 | 0.0 | 0.00 | 0.00 | 0.00 | 97 | 1018.5 |
| 20260905054753 | 21 | 228 | 0.0 | 0.0 | 0.00 | 0.00 | 0.00 | 97 | 1018.8 |
| 20260905054250 | 21 | 228 | 0.0 | 0.0 | 0.00 | 0.00 | 0.00 | 97 | 1018.8 |
| 20260905053749 | 21 | 228 | 0.0 | 0.0 | 0.00 | 0.00 | 0.00 | 97 | 1018.8 |
| 20260905053244 | 21 | 228 | 0.0 | 0.0 | 0.00 | 0.00 | 0.00 | 97 | 1018.8 |
| 20260905052744 | 21 | 228 | 0.0 | 0.0 | 0.00 | 0.00 | 0.00 | 98 | 1018.8 |
| 20260905052239 | 21 | 228 | 0.0 | 0.0 | 0.00 | 0.00 | 0.00 | 97 | 1018.8 |
| 20260905051738 | 21 | 228 | 0.0 | 0.0 | 0.00 | 0.00 | 0.00 | 97 | 1018.8 |
| 20260905051235 | 21 | 228 | 0.0 | 0.0 | 0.00 | 0.00 | 0.00 | 97 | 1018.8 |
| 20260905050731 | 21 | 228 | 0.0 | 0.0 | 0.00 | 0.00 | 0.00 | 97 | 1018.8 |
| 20260905050228 | 21 | 228 | 0.0 | 0.0 | 0.00 | 0.00 | 0.00 | 96 | 1018.8 |
| 20260905045727 | 21 | 228 | 0.0 | 0.0 | 0.00 | 0.00 | 0.00 | 96 | 1018.8 |
| 20260905045223 | 21 | 228 | 0.0 | 0.0 | 0.00 | 0.00 | 0.00 | 96 | 1018.8 |
| 20260905044718 | 21 | 228 | 0.0 | 0.0 | 0.00 | 0.00 | 0.00 | 96 | 1018.8 |